Weather History for Lakeland Region, FL

Change the Weather History Date:

Saturday, July 13, 2013

  Actual Average Record
Temperature  
Mean Temperature 79 °F -  
Max Temperature 87 °F 88 °F 95 °F (1994)
Min Temperature 71 °F 71 °F 71 °F (1991)
Cooling Degree Days 14    
Growing Degree Days 29 (Base 50)    
Moisture  
Dew Point 71 °F    
Average Humidity 89    
Maximum Humidity 100    
Minimum Humidity 55    
Precipitation  
Precipitation 0.00 in - - ()
Sea Level Pressure  
Sea Level Pressure 29.96 in    
Wind  
Wind Speed 2 mph (SE)    
Max Wind Speed 12 mph    
Max Gust Speed 21 mph    
Visibility 11 miles    
Events      
Averages and records for this station are not official NWS values.
T = Trace of Precipitation, MM = Missing Value Source: NWS Daily Summary

Daily Weather History Graph

Daily Weather History Graph

Search for Another Location

Airport:

Trip Planner

Search our weather history database for the weather conditions in past years. The results will help you decide how hot, cold, wet, or windy it might be!

Date:

Astronomy

Jul. 13, 2013 Rise Set
Actual Time 6:40 AM EDT 8:26 PM EDT
Civil Twilight 6:14 AM EDT 8:53 PM EDT
Nautical Twilight 5:42 AM EDT 9:24 PM EDT
Astronomical Twilight 5:09 AM EDT 9:57 PM EDT
Moon 11:24 AM EDT (7/13) 11:40 PM EDT (7/13)
Length of Visible Light 14h 38m
Length of Day
13h 46m
Waxing Crescent, 25% of the Moon is Illuminated
Jul 13
Waxing Crescent
Jul 15
First Quarter
Jul 22
Full
Jul 29
Last Quarter
Aug 6
New

Hourly Weather History & Observations

Time (EDT) Temp. Heat Index Dew Point Humidity Pressure Visibility Wind Dir Wind Speed Gust Speed Precip Events Conditions
12:15 AM 73.4 °F - 71.6 °F 94% 29.97 in - Calm Calm - N/A   Unknown
12:35 AM 73.4 °F - 71.6 °F 94% 29.97 in 10.0 mi ESE 4.6 mph - N/A   Scattered Clouds
12:55 AM 71.6 °F - 71.6 °F 100% 29.97 in 10.0 mi Calm Calm - N/A   Scattered Clouds
1:15 AM 71.6 °F - 71.6 °F 100% 29.95 in 10.0 mi Calm Calm - N/A   Scattered Clouds
1:35 AM 71.6 °F - 71.6 °F 100% 29.95 in 10.0 mi Calm Calm - N/A   Clear
1:55 AM 73.4 °F - 71.6 °F 94% 29.95 in 10.0 mi Calm Calm - N/A   Clear
2:15 AM 71.6 °F - 69.8 °F 94% 29.94 in 7.0 mi SE 3.5 mph - N/A   Clear
2:35 AM 71.6 °F - 69.8 °F 94% 29.94 in - Calm Calm - N/A   Unknown
2:55 AM 71.6 °F - 71.6 °F 100% 29.94 in 7.0 mi Calm Calm - N/A   Clear
3:15 AM 71.6 °F - 69.8 °F 94% 29.94 in 10.0 mi Calm Calm - N/A   Clear
3:35 AM 71.6 °F - 69.8 °F 94% 29.94 in 10.0 mi SE 4.6 mph - N/A   Clear
3:55 AM 71.6 °F - 69.8 °F 94% 29.94 in 10.0 mi Calm Calm - N/A   Clear
4:15 AM 71.6 °F - 69.8 °F 94% 29.94 in 10.0 mi Calm Calm - N/A   Clear
4:35 AM 71.6 °F - 69.8 °F 94% 29.94 in 10.0 mi South 3.5 mph - N/A   Clear
4:55 AM 71.6 °F - 69.8 °F 94% 29.94 in 10.0 mi Calm Calm - N/A   Clear
5:15 AM 71.6 °F - 69.8 °F 94% 29.94 in 10.0 mi Calm Calm - N/A   Clear
5:35 AM 71.6 °F - 69.8 °F 94% 29.94 in 10.0 mi Calm Calm - N/A   Clear
5:50 AM 73.4 °F - 71.6 °F 94% 29.95 in 10.0 mi Calm Calm - N/A   Scattered Clouds
5:55 AM 71.6 °F - 69.8 °F 94% 29.95 in 10.0 mi Calm Calm - N/A   Clear
6:15 AM 71.6 °F - 69.8 °F 94% 29.95 in 10.0 mi Calm Calm - N/A   Clear
6:35 AM 71.6 °F - 69.8 °F 94% 29.94 in 10.0 mi Calm Calm - N/A   Clear
6:50 AM 71.6 °F - 69.8 °F 94% 29.94 in 10.0 mi Calm Calm - N/A   Scattered Clouds
7:55 AM 75.2 °F - 71.6 °F 89% 29.94 in 12.0 mi SE 3.5 mph - N/A   Scattered Clouds
8:50 AM 78.8 °F - 71.6 °F 78% 29.96 in 15.0 mi SSE 4.6 mph - N/A   Scattered Clouds
9:50 AM 80.6 °F 84.6 °F 71.6 °F 74% 29.99 in 15.0 mi South 5.8 mph - N/A   Mostly Cloudy
10:50 AM 84.2 °F 89.6 °F 71.6 °F 66% 29.99 in 15.0 mi SE 6.9 mph - N/A   Mostly Cloudy
11:50 AM 86.0 °F 90.4 °F 69.8 °F 58% 29.98 in 15.0 mi SE 5.8 mph - N/A   Mostly Cloudy
12:50 PM 87.8 °F 92.6 °F 69.8 °F 55% 29.97 in 15.0 mi ESE 6.9 mph - N/A   Mostly Cloudy
1:50 PM 75.2 °F - 69.8 °F 83% 30.00 in 10.0 mi West 11.5 mph 20.7 mph N/A   Overcast
2:50 PM 73.4 °F - 71.6 °F 94% 29.98 in 10.0 mi Calm Calm - N/A   Mostly Cloudy
3:55 PM 75.2 °F - 73.4 °F 94% 29.98 in 10.0 mi Variable 4.6 mph - N/A   Mostly Cloudy
4:50 PM 77.0 °F - 73.4 °F 89% 29.98 in 10.0 mi ESE 9.2 mph - N/A   Mostly Cloudy
5:50 PM 78.8 °F - 71.6 °F 78% 29.97 in 10.0 mi ESE 5.8 mph - N/A   Mostly Cloudy
6:50 PM 80.6 °F 84.6 °F 71.6 °F 74% 29.96 in 10.0 mi East 4.6 mph - N/A   Mostly Cloudy
7:54 PM 78.8 °F - 71.6 °F 78% 29.97 in 12.0 mi East 4.6 mph - N/A   Mostly Cloudy
8:55 PM 75.2 °F - 71.6 °F 89% 29.98 in 12.0 mi East 6.9 mph - N/A   Mostly Cloudy
9:50 PM 75.2 °F - 71.6 °F 89% 30.00 in 12.0 mi SE 5.8 mph - N/A   Mostly Cloudy
10:55 PM 73.4 °F - 71.6 °F 94% 30.01 in 10.0 mi SE 6.9 mph - N/A   Clear
11:15 PM 73.4 °F - 71.6 °F 94% 30.01 in 10.0 mi SE 6.9 mph - N/A   Clear
11:35 PM 73.4 °F - 71.6 °F 94% 30.01 in 10.0 mi SE 5.8 mph - N/A   Clear
11:55 PM 73.4 °F - 71.6 °F 94% 30.02 in 10.0 mi SE 5.8 mph - N/A   Clear